Time,TemperatureF,DewpointF,PressureIn,WindDirection,WindDirectionDegrees,WindSpeedMPH,WindSpeedGustMPH,Humidity,HourlyPrecipIn,Conditions,Clouds,dailyrainin,SoftwareType,DateUTC
2013-08-01 00:01:00,54.8,54.0,30.10,WNW,303,0.0,4.0,97,0.00,,,0.00,Wunderground v.1.15,2013-08-01 07:01:00,
2013-08-01 00:07:00,54.9,54.1,30.10,WNW,303,0.0,4.0,97,0.00,,,0.00,Wunderground v.1.15,2013-08-01 07:07:00,
2013-08-01 00:13:00,55.0,54.2,30.10,WNW,303,0.0,0.0,97,0.00,,,0.00,Wunderground v.1.15,2013-08-01 07:13:00,
2013-08-01 00:18:00,55.2,54.4,30.10,WNW,303,0.0,0.0,97,0.00,,,0.00,Wunderground v.1.15,2013-08-01 07:18:00,
2013-08-01 00:24:00,55.3,54.5,30.10,WNW,303,0.0,1.0,97,0.00,,,0.00,Wunderground v.1.15,2013-08-01 07:24:00,
2013-08-01 00:29:00,55.3,54.5,30.10,WNW,303,0.0,1.0,97,0.00,,,0.00,Wunderground v.1.15,2013-08-01 07:29:00,
2013-08-01 00:35:00,55.3,54.5,30.11,WNW,303,0.0,0.0,97,0.00,,,0.00,Wunderground v.1.15,2013-08-01 07:35:00,
2013-08-01 00:41:00,55.4,54.6,30.10,WNW,303,0.0,1.0,97,0.00,,,0.00,Wunderground v.1.15,2013-08-01 07:41:00,
2013-08-01 00:47:00,54.7,53.6,30.10,WNW,303,1.0,2.0,96,0.00,,,0.00,Wunderground v.1.15,2013-08-01 07:47:00,
2013-08-01 00:52:00,54.7,53.9,30.10,WNW,303,1.0,2.0,97,0.00,,,0.00,Wunderground v.1.15,2013-08-01 07:52:00,
2013-08-01 00:58:00,54.9,54.1,30.10,WNW,303,2.0,2.0,97,0.00,,,0.00,Wunderground v.1.15,2013-08-01 07:58:00,
2013-08-01 01:07:00,55.0,54.2,30.10,WNW,303,0.0,2.0,97,0.00,,,0.00,Wunderground v.1.15,2013-08-01 08:07:00,
2013-08-01 01:13:00,55.2,54.4,30.11,WNW,303,0.0,2.0,97,0.00,,,0.00,Wunderground v.1.15,2013-08-01 08:13:00,
2013-08-01 01:19:00,55.3,54.5,30.11,WNW,303,0.0,2.0,97,0.00,,,0.00,Wunderground v.1.15,2013-08-01 08:19:00,
2013-08-01 01:25:00,55.4,54.6,30.11,WNW,303,0.0,2.0,97,0.00,,,0.00,Wunderground v.1.15,2013-08-01 08:25:00,
2013-08-01 01:30:00,55.4,54.6,30.11,WNW,303,0.0,2.0,97,0.00,,,0.00,Wunderground v.1.15,2013-08-01 08:30:00,
2013-08-01 01:36:00,54.9,53.8,30.10,WNW,303,0.0,2.0,96,0.00,,,0.00,Wunderground v.1.15,2013-08-01 08:36:00,
2013-08-01 01:42:00,54.0,52.9,30.10,WNW,303,0.0,2.0,96,0.00,,,0.00,Wunderground v.1.15,2013-08-01 08:42:00,
2013-08-01 01:47:00,54.2,53.4,30.10,WNW,303,0.0,2.0,97,0.00,,,0.00,Wunderground v.1.15,2013-08-01 08:47:00,
2013-08-01 01:52:00,54.5,53.7,30.10,WNW,303,0.0,2.0,97,0.00,,,0.00,Wunderground v.1.15,2013-08-01 08:52:00,
2013-08-01 01:59:00,54.9,54.1,30.10,WNW,303,0.0,2.0,97,0.00,,,0.00,Wunderground v.1.15,2013-08-01 08:59:00,
2013-08-01 02:05:00,55.1,54.3,30.10,WNW,303,0.0,2.0,97,0.00,,,0.00,Wunderground v.1.15,2013-08-01 09:05:00,
2013-08-01 02:10:00,54.4,53.0,30.10,WNW,303,1.0,2.0,95,0.00,,,0.00,Wunderground v.1.15,2013-08-01 09:10:00,
2013-08-01 02:17:00,53.9,53.1,30.10,WNW,303,1.0,2.0,97,0.00,,,0.00,Wunderground v.1.15,2013-08-01 09:17:00,
2013-08-01 02:23:00,54.3,53.7,30.10,WNW,303,0.0,2.0,98,0.00,,,0.00,Wunderground v.1.15,2013-08-01 09:23:00,
2013-08-01 02:28:00,53.7,52.6,30.10,WNW,303,1.0,3.0,96,0.00,,,0.00,Wunderground v.1.15,2013-08-01 09:28:00,
2013-08-01 02:33:00,53.2,52.1,30.10,WNW,303,1.0,2.0,96,0.00,,,0.00,Wunderground v.1.15,2013-08-01 09:33:00,
2013-08-01 02:38:00,52.9,52.1,30.10,WNW,303,0.0,2.0,97,0.00,,,0.00,Wunderground v.1.15,2013-08-01 09:38:00,
2013-08-01 02:44:00,53.0,52.2,30.10,WNW,303,0.0,2.0,97,0.00,,,0.00,Wunderground v.1.15,2013-08-01 09:44:00,
2013-08-01 02:50:00,53.4,52.6,30.10,WNW,303,0.0,2.0,97,0.00,,,0.00,Wunderground v.1.15,2013-08-01 09:50:00,
2013-08-01 02:56:00,53.7,53.1,30.10,WNW,303,0.0,2.0,98,0.00,,,0.00,Wunderground v.1.15,2013-08-01 09:56:00,
2013-08-01 03:01:00,53.9,53.1,30.10,WNW,303,0.0,2.0,97,0.00,,,0.00,Wunderground v.1.15,2013-08-01 10:01:00,
2013-08-01 03:07:00,54.1,53.3,30.10,WNW,303,0.0,2.0,97,0.00,,,0.00,Wunderground v.1.15,2013-08-01 10:07:00,
2013-08-01 03:13:00,54.1,53.3,30.10,WNW,303,0.0,2.0,97,0.00,,,0.00,Wunderground v.1.15,2013-08-01 10:13:00,
2013-08-01 03:18:00,54.0,53.4,30.09,WNW,303,0.0,2.0,98,0.00,,,0.00,Wunderground v.1.15,2013-08-01 10:18:00,
2013-08-01 03:24:00,54.1,53.3,30.09,WNW,303,0.0,2.0,97,0.00,,,0.00,Wunderground v.1.15,2013-08-01 10:24:00,
2013-08-01 03:29:00,54.2,53.6,30.09,WNW,303,0.0,2.0,98,0.00,,,0.00,Wunderground v.1.15,2013-08-01 10:29:00,
2013-08-01 03:35:00,54.3,53.7,30.09,WNW,303,0.0,2.0,98,0.00,,,0.00,Wunderground v.1.15,2013-08-01 10:35:00,
2013-08-01 03:41:00,54.3,53.7,30.09,WNW,303,0.0,2.0,98,0.00,,,0.00,Wunderground v.1.15,2013-08-01 10:41:00,
2013-08-01 03:47:00,54.3,53.7,30.09,WNW,303,0.0,2.0,98,0.00,,,0.00,Wunderground v.1.15,2013-08-01 10:47:00,
2013-08-01 03:52:00,54.3,53.7,30.09,WNW,303,0.0,2.0,98,0.00,,,0.00,Wunderground v.1.15,2013-08-01 10:52:00,
2013-08-01 03:57:00,54.3,53.7,30.09,WNW,303,1.0,2.0,98,0.00,,,0.00,Wunderground v.1.15,2013-08-01 10:57:00,
2013-08-01 04:03:00,54.3,53.7,30.09,WNW,303,1.0,3.0,98,0.00,,,0.00,Wunderground v.1.15,2013-08-01 11:03:00,
2013-08-01 04:09:00,54.4,53.8,30.09,WNW,303,1.0,3.0,98,0.00,,,0.00,Wunderground v.1.15,2013-08-01 11:09:00,
2013-08-01 04:14:00,54.4,53.8,30.09,WNW,303,1.0,2.0,98,0.00,,,0.00,Wunderground v.1.15,2013-08-01 11:14:00,
2013-08-01 04:20:00,54.4,53.8,30.09,WNW,303,0.0,2.0,98,0.00,,,0.00,Wunderground v.1.15,2013-08-01 11:20:00,
2013-08-01 04:25:00,54.4,53.8,30.09,WNW,303,1.0,2.0,98,0.00,,,0.00,Wunderground v.1.15,2013-08-01 11:25:00,
2013-08-01 04:32:00,53.9,53.1,30.09,WNW,303,1.0,2.0,97,0.00,,,0.00,Wunderground v.1.15,2013-08-01 11:32:00,
2013-08-01 04:38:00,52.6,51.8,30.10,WNW,303,1.0,2.0,97,0.00,,,0.00,Wunderground v.1.15,2013-08-01 11:38:00,
2013-08-01 04:46:00,52.8,52.3,30.10,WNW,303,2.0,3.0,98,0.00,,,0.00,Wunderground v.1.15,2013-08-01 11:46:00,
2013-08-01 04:51:00,53.1,52.6,30.09,WNW,303,2.0,2.0,98,0.00,,,0.00,Wunderground v.1.15,2013-08-01 11:51:00,
2013-08-01 04:58:00,53.1,52.6,30.10,WNW,303,2.0,3.0,98,0.00,,,0.00,Wunderground v.1.15,2013-08-01 11:58:00,
2013-08-01 05:03:00,53.1,52.6,30.10,WNW,303,2.0,3.0,98,0.00,,,0.00,Wunderground v.1.15,2013-08-01 12:03:00,
2013-08-01 05:12:00,53.4,52.8,30.10,WNW,303,2.0,3.0,98,0.00,,,0.00,Wunderground v.1.15,2013-08-01 12:12:00,
2013-08-01 05:18:00,53.5,52.9,30.10,WNW,303,2.0,3.0,98,0.00,,,0.00,Wunderground v.1.15,2013-08-01 12:18:00,
2013-08-01 05:27:00,53.1,52.6,30.10,WNW,303,3.0,4.0,98,0.00,,,0.00,Wunderground v.1.15,2013-08-01 12:27:00,
2013-08-01 05:35:00,53.0,52.5,30.10,WNW,303,3.0,3.0,98,0.00,,,0.01,Wunderground v.1.15,2013-08-01 12:35:00,
2013-08-01 05:42:00,53.3,52.8,30.10,WNW,303,2.0,2.0,98,0.00,,,0.01,Wunderground v.1.15,2013-08-01 12:42:00,
2013-08-01 05:47:00,53.4,52.8,30.10,WNW,303,2.0,3.0,98,0.00,,,0.01,Wunderground v.1.15,2013-08-01 12:47:00,
2013-08-01 05:53:00,53.5,52.9,30.10,WNW,303,3.0,3.0,98,0.00,,,0.01,Wunderground v.1.15,2013-08-01 12:53:00,
2013-08-01 05:58:00,53.6,53.0,30.10,WNW,303,2.0,3.0,98,0.00,,,0.01,Wunderground v.1.15,2013-08-01 12:58:00,
2013-08-01 06:04:00,53.6,53.0,30.10,WNW,303,2.0,2.0,98,0.00,,,0.01,Wunderground v.1.15,2013-08-01 13:04:00,
2013-08-01 06:10:00,53.7,53.1,30.10,WNW,303,1.0,1.0,98,0.00,,,0.01,Wunderground v.1.15,2013-08-01 13:10:00,
2013-08-01 06:17:00,53.8,53.2,30.10,WNW,303,1.0,3.0,98,0.00,,,0.01,Wunderground v.1.15,2013-08-01 13:17:00,
2013-08-01 06:23:00,53.4,52.8,30.10,WNW,303,1.0,2.0,98,0.00,,,0.01,Wunderground v.1.15,2013-08-01 13:23:00,
2013-08-01 06:28:00,53.3,52.8,30.10,WNW,303,2.0,4.0,98,0.00,,,0.01,Wunderground v.1.15,2013-08-01 13:28:00,
2013-08-01 06:33:00,53.1,52.6,30.11,WNW,303,3.0,3.0,98,0.00,,,0.01,Wunderground v.1.15,2013-08-01 13:33:00,
2013-08-01 06:41:00,52.8,52.3,30.10,WNW,303,3.0,3.0,98,0.00,,,0.01,Wunderground v.1.15,2013-08-01 13:41:00,
2013-08-01 06:47:00,53.1,52.8,30.10,WNW,303,3.0,4.0,99,0.00,,,0.01,Wunderground v.1.15,2013-08-01 13:47:00,
2013-08-01 06:53:00,53.4,53.1,30.10,WNW,303,3.0,3.0,99,0.00,,,0.01,Wunderground v.1.15,2013-08-01 13:53:00,
2013-08-01 06:58:00,53.4,52.8,30.10,WNW,303,3.0,4.0,98,0.00,,,0.01,Wunderground v.1.15,2013-08-01 13:58:00,
2013-08-01 07:06:00,53.3,53.0,30.11,WNW,303,3.0,4.0,99,0.00,,,0.01,Wunderground v.1.15,2013-08-01 14:06:00,
2013-08-01 07:11:00,53.4,53.1,30.11,WNW,303,3.0,3.0,99,0.00,,,0.01,Wunderground v.1.15,2013-08-01 14:11:00,
2013-08-01 07:17:00,53.5,53.2,30.11,WNW,303,3.0,3.0,99,0.00,,,0.01,Wunderground v.1.15,2013-08-01 14:17:00,
2013-08-01 07:23:00,53.7,53.4,30.11,WNW,303,3.0,3.0,99,0.00,,,0.01,Wunderground v.1.15,2013-08-01 14:23:00,
2013-08-01 07:28:00,53.8,53.5,30.11,WNW,303,2.0,3.0,99,0.00,,,0.01,Wunderground v.1.15,2013-08-01 14:28:00,
2013-08-01 07:35:00,53.9,53.6,30.11,WNW,303,2.0,3.0,99,0.00,,,0.01,Wunderground v.1.15,2013-08-01 14:35:00,
2013-08-01 07:42:00,54.0,53.7,30.11,WNW,303,2.0,3.0,99,0.00,,,0.01,Wunderground v.1.15,2013-08-01 14:42:00,
2013-08-01 07:48:00,53.8,53.5,30.11,WNW,303,2.0,3.0,99,0.00,,,0.01,Wunderground v.1.15,2013-08-01 14:48:00,
2013-08-01 07:53:00,53.7,53.4,30.11,WNW,303,2.0,3.0,99,0.00,,,0.01,Wunderground v.1.15,2013-08-01 14:53:00,
2013-08-01 08:00:00,52.5,52.0,30.11,WNW,303,3.0,3.0,98,0.00,,,0.01,Wunderground v.1.15,2013-08-01 15:00:00,
2013-08-01 08:05:00,51.9,51.4,30.11,WNW,303,3.0,3.0,98,0.00,,,0.01,Wunderground v.1.15,2013-08-01 15:05:00,
2013-08-01 08:11:00,51.7,51.2,30.11,WNW,303,3.0,4.0,98,0.00,,,0.01,Wunderground v.1.15,2013-08-01 15:11:00,
2013-08-01 08:17:00,51.8,51.5,30.11,WNW,303,3.0,4.0,99,0.00,,,0.01,Wunderground v.1.15,2013-08-01 15:17:00,
2013-08-01 08:24:00,51.8,51.5,30.11,WNW,303,2.0,4.0,99,0.00,,,0.01,Wunderground v.1.15,2013-08-01 15:24:00,
2013-08-01 08:30:00,51.8,51.5,30.11,WNW,303,2.0,2.0,99,0.00,,,0.01,Wunderground v.1.15,2013-08-01 15:30:00,
2013-08-01 08:37:00,51.8,51.5,30.12,WNW,303,3.0,4.0,99,0.00,,,0.01,Wunderground v.1.15,2013-08-01 15:37:00,
2013-08-01 08:43:00,51.8,51.5,30.12,WNW,303,3.0,4.0,99,0.00,,,0.01,Wunderground v.1.15,2013-08-01 15:43:00,
2013-08-01 08:49:00,51.9,51.6,30.12,WNW,303,3.0,4.0,99,0.00,,,0.01,Wunderground v.1.15,2013-08-01 15:49:00,
2013-08-01 08:54:00,51.9,51.6,30.11,WNW,303,3.0,5.0,99,0.00,,,0.01,Wunderground v.1.15,2013-08-01 15:54:00,
2013-08-01 09:00:00,51.9,51.6,30.12,WNW,303,3.0,3.0,99,0.00,,,0.01,Wunderground v.1.15,2013-08-01 16:00:00,
2013-08-01 09:06:00,52.0,51.7,30.12,WNW,303,3.0,4.0,99,0.00,,,0.01,Wunderground v.1.15,2013-08-01 16:06:00,
2013-08-01 09:12:00,52.2,51.9,30.12,WNW,303,3.0,4.0,99,0.00,,,0.01,Wunderground v.1.15,2013-08-01 16:12:00,
2013-08-01 09:21:00,52.4,52.1,30.12,WNW,303,3.0,3.0,99,0.00,,,0.01,Wunderground v.1.15,2013-08-01 16:21:00,
2013-08-01 09:27:00,52.4,52.1,30.12,WNW,303,3.0,4.0,99,0.00,,,0.01,Wunderground v.1.15,2013-08-01 16:27:00,
2013-08-01 09:33:00,52.9,52.6,30.12,WNW,303,3.0,4.0,99,0.00,,,0.01,Wunderground v.1.15,2013-08-01 16:33:00,
2013-08-01 09:40:00,53.5,53.5,30.12,WNW,303,3.0,3.0,100,0.00,,,0.01,Wunderground v.1.15,2013-08-01 16:40:00,
2013-08-01 09:45:00,53.7,53.4,30.12,WNW,303,3.0,3.0,99,0.00,,,0.01,Wunderground v.1.15,2013-08-01 16:45:00,
2013-08-01 09:51:00,53.7,53.4,30.12,WNW,303,3.0,4.0,99,0.00,,,0.01,Wunderground v.1.15,2013-08-01 16:51:00,
2013-08-01 09:56:00,53.4,53.1,30.12,WNW,303,3.0,4.0,99,0.00,,,0.01,Wunderground v.1.15,2013-08-01 16:56:00,
2013-08-01 10:02:00,53.1,52.8,30.12,WNW,303,4.0,4.0,99,0.00,,,0.01,Wunderground v.1.15,2013-08-01 17:02:00,
2013-08-01 10:08:00,52.8,52.5,30.12,WNW,303,3.0,5.0,99,0.00,,,0.01,Wunderground v.1.15,2013-08-01 17:08:00,
2013-08-01 10:13:00,52.9,52.6,30.12,WNW,303,4.0,5.0,99,0.00,,,0.01,Wunderground v.1.15,2013-08-01 17:13:00,
2013-08-01 10:18:00,53.4,53.1,30.12,WNW,303,4.0,5.0,99,0.00,,,0.01,Wunderground v.1.15,2013-08-01 17:18:00,
2013-08-01 10:24:00,53.5,53.2,30.12,WNW,303,4.0,5.0,99,0.00,,,0.01,Wunderground v.1.15,2013-08-01 17:24:00,
2013-08-01 10:33:00,54.7,54.7,30.12,WNW,303,4.0,5.0,100,0.00,,,0.01,Wunderground v.1.15,2013-08-01 17:33:00,
2013-08-01 10:39:00,55.2,54.9,30.12,SW,226,5.0,8.0,99,0.00,,,0.01,Wunderground v.1.15,2013-08-01 17:39:00,
2013-08-01 10:44:00,55.0,54.7,30.12,SW,217,6.0,8.0,99,0.00,,,0.01,Wunderground v.1.15,2013-08-01 17:44:00,
2013-08-01 10:51:00,54.6,54.3,30.12,SW,217,5.0,5.0,99,0.00,,,0.01,Wunderground v.1.15,2013-08-01 17:51:00,
2013-08-01 10:58:00,54.0,53.7,30.12,SW,217,5.0,6.0,99,0.00,,,0.01,Wunderground v.1.15,2013-08-01 17:58:00,
2013-08-01 11:05:00,54.3,54.0,30.12,SW,217,5.0,5.0,99,0.00,,,0.01,Wunderground v.1.15,2013-08-01 18:05:00,
2013-08-01 11:10:00,54.6,54.3,30.12,SW,217,4.0,4.0,99,0.00,,,0.01,Wunderground v.1.15,2013-08-01 18:10:00,
2013-08-01 11:16:00,53.9,53.6,30.13,SW,217,4.0,6.0,99,0.00,,,0.01,Wunderground v.1.15,2013-08-01 18:16:00,
2013-08-01 11:24:00,52.7,52.4,30.13,SW,217,5.0,5.0,99,0.00,,,0.01,Wunderground v.1.15,2013-08-01 18:24:00,
2013-08-01 11:30:00,53.2,52.9,30.13,SW,217,5.0,6.0,99,0.00,,,0.01,Wunderground v.1.15,2013-08-01 18:30:00,
2013-08-01 11:36:00,53.8,53.5,30.13,SW,217,5.0,6.0,99,0.00,,,0.01,Wunderground v.1.15,2013-08-01 18:36:00,
2013-08-01 11:43:00,53.8,53.5,30.13,SW,217,5.0,6.0,99,0.00,,,0.01,Wunderground v.1.15,2013-08-01 18:43:00,
2013-08-01 11:48:00,53.8,53.5,30.13,SW,217,5.0,7.0,99,0.00,,,0.01,Wunderground v.1.15,2013-08-01 18:48:00,
2013-08-01 11:54:00,53.9,53.6,30.13,SW,217,5.0,6.0,99,0.00,,,0.01,Wunderground v.1.15,2013-08-01 18:54:00,
2013-08-01 12:02:00,53.4,53.1,30.14,SW,217,4.0,5.0,99,0.00,,,0.01,Wunderground v.1.15,2013-08-01 19:02:00,
2013-08-01 12:07:00,53.1,52.8,30.14,SW,217,5.0,6.0,99,0.00,,,0.01,Wunderground v.1.15,2013-08-01 19:07:00,
2013-08-01 12:14:00,53.9,53.6,30.14,SW,217,4.0,4.0,99,0.00,,,0.01,Wunderground v.1.15,2013-08-01 19:14:00,
2013-08-01 12:20:00,54.0,53.7,30.14,SW,217,4.0,4.0,99,0.00,,,0.01,Wunderground v.1.15,2013-08-01 19:20:00,
2013-08-01 12:26:00,53.9,53.6,30.14,SW,217,4.0,6.0,99,0.00,,,0.01,Wunderground v.1.15,2013-08-01 19:26:00,
2013-08-01 12:31:00,53.8,53.5,30.14,SW,217,4.0,4.0,99,0.00,,,0.01,Wunderground v.1.15,2013-08-01 19:31:00,
2013-08-01 12:37:00,54.0,53.7,30.14,SW,217,4.0,6.0,99,0.00,,,0.01,Wunderground v.1.15,2013-08-01 19:37:00,
2013-08-01 12:43:00,54.0,53.7,30.14,SW,217,4.0,5.0,99,0.00,,,0.01,Wunderground v.1.15,2013-08-01 19:43:00,
2013-08-01 12:50:00,54.4,54.1,30.14,SW,217,3.0,3.0,99,0.00,,,0.01,Wunderground v.1.15,2013-08-01 19:50:00,
2013-08-01 12:55:00,55.0,54.7,30.14,SW,217,3.0,4.0,99,0.00,,,0.01,Wunderground v.1.15,2013-08-01 19:55:00,
2013-08-01 13:02:00,55.0,54.7,30.14,SW,217,4.0,5.0,99,0.00,,,0.01,Wunderground v.1.15,2013-08-01 20:02:00,
2013-08-01 13:07:00,54.3,53.7,30.14,SW,217,4.0,6.0,98,0.00,,,0.01,Wunderground v.1.15,2013-08-01 20:07:00,
2013-08-01 13:13:00,54.5,54.2,30.14,SW,217,4.0,4.0,99,0.00,,,0.01,Wunderground v.1.15,2013-08-01 20:13:00,
2013-08-01 13:19:00,54.2,53.6,30.15,SW,217,4.0,5.0,98,0.00,,,0.01,Wunderground v.1.15,2013-08-01 20:19:00,
2013-08-01 13:24:00,54.3,54.0,30.15,SW,217,4.0,5.0,99,0.00,,,0.01,Wunderground v.1.15,2013-08-01 20:24:00,
2013-08-01 13:30:00,54.7,54.4,30.15,SW,217,4.0,4.0,99,0.00,,,0.01,Wunderground v.1.15,2013-08-01 20:30:00,
2013-08-01 13:35:00,55.2,54.9,30.14,SW,217,4.0,5.0,99,0.00,,,0.01,Wunderground v.1.15,2013-08-01 20:35:00,
2013-08-01 13:40:00,55.3,55.0,30.15,SW,217,4.0,5.0,99,0.00,,,0.01,Wunderground v.1.15,2013-08-01 20:40:00,
2013-08-01 13:46:00,55.4,55.1,30.15,SW,217,5.0,6.0,99,0.00,,,0.01,Wunderground v.1.15,2013-08-01 20:46:00,
2013-08-01 13:51:00,55.6,55.0,30.15,SW,217,5.0,5.0,98,0.00,,,0.01,Wunderground v.1.15,2013-08-01 20:51:00,
2013-08-01 13:57:00,55.4,54.8,30.14,SW,217,5.0,5.0,98,0.00,,,0.01,Wunderground v.1.15,2013-08-01 20:57:00,
2013-08-01 14:02:00,55.9,55.6,30.15,SW,217,5.0,5.0,99,0.00,,,0.01,Wunderground v.1.15,2013-08-01 21:02:00,
2013-08-01 14:08:00,56.3,55.7,30.15,SW,217,4.0,5.0,98,0.00,,,0.01,Wunderground v.1.15,2013-08-01 21:08:00,
2013-08-01 14:14:00,56.6,56.0,30.15,SW,217,4.0,6.0,98,0.00,,,0.01,Wunderground v.1.15,2013-08-01 21:14:00,
2013-08-01 14:20:00,56.2,55.4,30.15,SW,217,5.0,5.0,97,0.00,,,0.01,Wunderground v.1.15,2013-08-01 21:20:00,
2013-08-01 14:25:00,55.7,54.9,30.15,SW,217,5.0,7.0,97,0.00,,,0.01,Wunderground v.1.15,2013-08-01 21:25:00,
2013-08-01 14:30:00,55.4,54.6,30.15,SW,217,5.0,7.0,97,0.00,,,0.01,Wunderground v.1.15,2013-08-01 21:30:00,
2013-08-01 14:35:00,55.1,54.3,30.15,SW,217,5.0,7.0,97,0.00,,,0.01,Wunderground v.1.15,2013-08-01 21:35:00,
2013-08-01 14:41:00,55.3,54.5,30.15,SW,217,5.0,7.0,97,0.00,,,0.01,Wunderground v.1.15,2013-08-01 21:41:00,
2013-08-01 14:46:00,55.8,55.0,30.15,SW,217,5.0,7.0,97,0.00,,,0.01,Wunderground v.1.15,2013-08-01 21:46:00,
2013-08-01 14:52:00,56.2,55.6,30.15,SW,217,5.0,6.0,98,0.00,,,0.01,Wunderground v.1.15,2013-08-01 21:52:00,
2013-08-01 14:57:00,56.0,54.9,30.15,SW,217,5.0,6.0,96,0.00,,,0.01,Wunderground v.1.15,2013-08-01 21:57:00,
2013-08-01 15:03:00,55.9,55.1,30.15,SW,217,6.0,6.0,97,0.00,,,0.01,Wunderground v.1.15,2013-08-01 22:03:00,
2013-08-01 15:08:00,55.9,55.1,30.16,SW,216,6.0,7.0,97,0.00,,,0.01,Wunderground v.1.15,2013-08-01 22:08:00,
2013-08-01 15:13:00,56.4,55.6,30.15,SW,216,5.0,7.0,97,0.00,,,0.01,Wunderground v.1.15,2013-08-01 22:13:00,
2013-08-01 15:18:00,56.4,55.6,30.15,SW,216,5.0,8.0,97,0.00,,,0.01,Wunderground v.1.15,2013-08-01 22:18:00,
2013-08-01 15:24:00,57.0,56.2,30.15,SW,216,5.0,6.0,97,0.00,,,0.01,Wunderground v.1.15,2013-08-01 22:24:00,
2013-08-01 15:29:00,56.8,55.7,30.15,SW,216,5.0,6.0,96,0.00,,,0.01,Wunderground v.1.15,2013-08-01 22:29:00,
2013-08-01 15:36:00,57.0,55.9,30.15,SW,216,5.0,6.0,96,0.00,,,0.01,Wunderground v.1.15,2013-08-01 22:36:00,
2013-08-01 15:42:00,57.1,56.0,30.15,SW,216,5.0,6.0,96,0.00,,,0.01,Wunderground v.1.15,2013-08-01 22:42:00,
2013-08-01 15:49:00,57.5,56.1,30.15,SW,215,5.0,6.0,95,0.00,,,0.01,Wunderground v.1.15,2013-08-01 22:49:00,
2013-08-01 15:54:00,57.5,56.4,30.15,SW,215,5.0,5.0,96,0.00,,,0.01,Wunderground v.1.15,2013-08-01 22:54:00,
2013-08-01 16:01:00,57.3,55.9,30.15,SW,215,5.0,6.0,95,0.00,,,0.01,Wunderground v.1.15,2013-08-01 23:01:00,
2013-08-01 16:07:00,57.5,55.8,30.15,SW,220,5.0,9.0,94,0.00,,,0.01,Wunderground v.1.15,2013-08-01 23:07:00,
2013-08-01 16:12:00,57.3,55.9,30.15,SW,221,5.0,7.0,95,0.00,,,0.01,Wunderground v.1.15,2013-08-01 23:12:00,
2013-08-01 16:18:00,57.0,55.3,30.15,SW,219,5.0,7.0,94,0.00,,,0.01,Wunderground v.1.15,2013-08-01 23:18:00,
2013-08-01 16:25:00,57.0,55.3,30.15,SW,219,5.0,6.0,94,0.00,,,0.01,Wunderground v.1.15,2013-08-01 23:25:00,
2013-08-01 16:30:00,56.9,55.2,30.15,SW,218,5.0,6.0,94,0.00,,,0.01,Wunderground v.1.15,2013-08-01 23:30:00,
2013-08-01 16:35:00,56.6,54.9,30.15,SW,218,5.0,7.0,94,0.00,,,0.01,Wunderground v.1.15,2013-08-01 23:35:00,
2013-08-01 16:41:00,57.1,55.7,30.15,SW,218,5.0,5.0,95,0.00,,,0.01,Wunderground v.1.15,2013-08-01 23:41:00,
2013-08-01 16:46:00,57.4,56.0,30.15,SW,219,5.0,6.0,95,0.00,,,0.01,Wunderground v.1.15,2013-08-01 23:46:00,
2013-08-01 16:52:00,57.4,55.7,30.14,SW,219,5.0,6.0,94,0.00,,,0.01,Wunderground v.1.15,2013-08-01 23:52:00,
2013-08-01 16:57:00,56.9,54.9,30.14,SW,219,4.0,7.0,93,0.00,,,0.01,Wunderground v.1.15,2013-08-01 23:57:00,
2013-08-01 17:03:00,56.3,54.6,30.14,SW,219,6.0,7.0,94,0.00,,,0.01,Wunderground v.1.15,2013-08-02 00:03:00,
2013-08-01 17:09:00,56.4,54.7,30.14,SW,220,6.0,7.0,94,0.00,,,0.01,Wunderground v.1.15,2013-08-02 00:09:00,
2013-08-01 17:15:00,56.6,55.2,30.14,SW,220,6.0,6.0,95,0.00,,,0.01,Wunderground v.1.15,2013-08-02 00:15:00,
2013-08-01 17:20:00,56.8,55.4,30.14,SW,220,5.0,5.0,95,0.00,,,0.01,Wunderground v.1.15,2013-08-02 00:20:00,
2013-08-01 17:25:00,56.8,55.1,30.14,SW,220,5.0,6.0,94,0.00,,,0.01,Wunderground v.1.15,2013-08-02 00:25:00,
2013-08-01 17:31:00,56.8,55.1,30.14,SW,220,6.0,6.0,94,0.00,,,0.01,Wunderground v.1.15,2013-08-02 00:31:00,
2013-08-01 17:36:00,57.4,56.0,30.14,SW,220,5.0,6.0,95,0.00,,,0.01,Wunderground v.1.15,2013-08-02 00:36:00,
2013-08-01 17:42:00,57.7,56.0,30.14,SW,220,5.0,5.0,94,0.00,,,0.01,Wunderground v.1.15,2013-08-02 00:42:00,
2013-08-01 17:47:00,57.9,56.2,30.14,SW,220,5.0,6.0,94,0.00,,,0.01,Wunderground v.1.15,2013-08-02 00:47:00,
2013-08-01 17:52:00,57.7,56.0,30.14,SW,220,5.0,7.0,94,0.00,,,0.01,Wunderground v.1.15,2013-08-02 00:52:00,
2013-08-01 17:59:00,57.7,56.3,30.14,SW,220,5.0,7.0,95,0.00,,,0.01,Wunderground v.1.15,2013-08-02 00:59:00,
2013-08-01 18:04:00,57.3,55.6,30.14,SW,220,5.0,6.0,94,0.00,,,0.01,Wunderground v.1.15,2013-08-02 01:04:00,
2013-08-01 18:10:00,57.2,55.8,30.14,SW,220,5.0,5.0,95,0.00,,,0.01,Wunderground v.1.15,2013-08-02 01:10:00,
2013-08-01 18:16:00,57.4,56.0,30.14,SW,220,4.0,5.0,95,0.00,,,0.01,Wunderground v.1.15,2013-08-02 01:16:00,
2013-08-01 18:21:00,57.5,55.8,30.14,SW,220,4.0,6.0,94,0.00,,,0.01,Wunderground v.1.15,2013-08-02 01:21:00,
2013-08-01 18:27:00,57.6,56.2,30.14,SW,220,4.0,7.0,95,0.00,,,0.01,Wunderground v.1.15,2013-08-02 01:27:00,
2013-08-01 18:33:00,57.6,55.9,30.13,SW,220,4.0,6.0,94,0.00,,,0.01,Wunderground v.1.15,2013-08-02 01:33:00,
2013-08-01 18:39:00,57.0,55.3,30.13,SW,220,4.0,6.0,94,0.00,,,0.01,Wunderground v.1.15,2013-08-02 01:39:00,
2013-08-01 18:46:00,56.6,54.9,30.13,SW,220,4.0,4.0,94,0.00,,,0.01,Wunderground v.1.15,2013-08-02 01:46:00,
2013-08-01 18:51:00,55.9,54.2,30.13,SW,220,4.0,5.0,94,0.00,,,0.01,Wunderground v.1.15,2013-08-02 01:51:00,
2013-08-01 18:56:00,55.6,53.9,30.13,SW,220,4.0,5.0,94,0.00,,,0.01,Wunderground v.1.15,2013-08-02 01:56:00,
2013-08-01 19:02:00,55.2,53.8,30.13,SW,220,4.0,4.0,95,0.00,,,0.01,Wunderground v.1.15,2013-08-02 02:02:00,
2013-08-01 19:07:00,55.1,53.7,30.13,SW,220,3.0,4.0,95,0.00,,,0.01,Wunderground v.1.15,2013-08-02 02:07:00,
2013-08-01 19:12:00,55.0,53.6,30.13,SW,220,3.0,3.0,95,0.00,,,0.01,Wunderground v.1.15,2013-08-02 02:12:00,
2013-08-01 19:17:00,55.0,53.9,30.13,SW,220,3.0,3.0,96,0.00,,,0.01,Wunderground v.1.15,2013-08-02 02:17:00,
2013-08-01 19:23:00,55.3,54.2,30.13,SW,220,2.0,3.0,96,0.00,,,0.01,Wunderground v.1.15,2013-08-02 02:23:00,
2013-08-01 19:29:00,55.2,54.1,30.13,SW,220,3.0,3.0,96,0.00,,,0.01,Wunderground v.1.15,2013-08-02 02:29:00,
2013-08-01 19:35:00,55.2,54.1,30.13,SW,220,3.0,4.0,96,0.00,,,0.01,Wunderground v.1.15,2013-08-02 02:35:00,
2013-08-01 19:40:00,55.2,54.1,30.13,SW,220,3.0,3.0,96,0.00,,,0.01,Wunderground v.1.15,2013-08-02 02:40:00,
2013-08-01 19:46:00,55.0,53.9,30.13,SW,220,3.0,4.0,96,0.00,,,0.01,Wunderground v.1.15,2013-08-02 02:46:00,
2013-08-01 19:52:00,54.9,53.8,30.13,SW,220,3.0,3.0,96,0.00,,,0.01,Wunderground v.1.15,2013-08-02 02:52:00,
2013-08-01 19:57:00,54.9,53.8,30.13,SW,220,3.0,3.0,96,0.00,,,0.01,Wunderground v.1.15,2013-08-02 02:57:00,
2013-08-01 20:04:00,55.0,53.9,30.13,SW,220,2.0,3.0,96,0.00,,,0.01,Wunderground v.1.15,2013-08-02 03:04:00,
2013-08-01 20:09:00,54.9,53.8,30.13,SW,220,2.0,3.0,96,0.00,,,0.01,Wunderground v.1.15,2013-08-02 03:09:00,
2013-08-01 20:14:00,54.9,53.8,30.13,SW,220,2.0,3.0,96,0.00,,,0.01,Wunderground v.1.15,2013-08-02 03:14:00,
2013-08-01 20:20:00,54.8,54.0,30.13,SW,220,2.0,2.0,97,0.00,,,0.01,Wunderground v.1.15,2013-08-02 03:20:00,
2013-08-01 20:26:00,54.8,54.0,30.13,SW,220,2.0,3.0,97,0.00,,,0.01,Wunderground v.1.15,2013-08-02 03:26:00,
2013-08-01 20:32:00,54.8,54.0,30.13,SW,220,2.0,2.0,97,0.00,,,0.01,Wunderground v.1.15,2013-08-02 03:32:00,
2013-08-01 20:38:00,54.9,54.1,30.13,SW,220,1.0,2.0,97,0.00,,,0.01,Wunderground v.1.15,2013-08-02 03:38:00,
2013-08-01 20:44:00,54.9,54.1,30.13,SW,220,1.0,2.0,97,0.00,,,0.01,Wunderground v.1.15,2013-08-02 03:44:00,
2013-08-01 20:49:00,54.9,54.1,30.13,SW,220,0.0,2.0,97,0.00,,,0.01,Wunderground v.1.15,2013-08-02 03:49:00,
2013-08-01 20:55:00,54.9,54.1,30.13,SW,220,0.0,2.0,97,0.00,,,0.01,Wunderground v.1.15,2013-08-02 03:55:00,
2013-08-01 21:01:00,54.9,54.1,30.13,SW,220,0.0,2.0,97,0.00,,,0.01,Wunderground v.1.15,2013-08-02 04:01:00,
2013-08-01 21:03:00,54.9,54.1,30.13,SW,220,0.0,2.0,97,0.00,,,0.01,Wunderground v.1.15,2013-08-02 04:03:00,
2013-08-01 21:05:00,54.9,54.1,30.13,SW,220,0.0,2.0,97,0.00,,,0.01,Wunderground v.1.15,2013-08-02 04:05:00,
2013-08-01 21:07:00,54.9,54.1,30.13,SW,220,0.0,2.0,97,0.00,,,0.01,Wunderground v.1.15,2013-08-02 04:07:00,
2013-08-01 21:13:00,54.9,54.1,30.13,SW,220,0.0,2.0,97,0.00,,,0.01,Wunderground v.1.15,2013-08-02 04:13:00,
2013-08-01 21:15:00,54.9,54.1,30.13,SW,220,0.0,2.0,97,0.00,,,0.01,Wunderground v.1.15,2013-08-02 04:15:00,
2013-08-01 21:16:00,54.9,54.1,30.13,SW,220,0.0,2.0,97,0.00,,,0.01,Wunderground v.1.15,2013-08-02 04:16:00,
2013-08-01 21:22:00,54.9,54.1,30.13,SW,220,0.0,2.0,97,0.00,,,0.01,Wunderground v.1.15,2013-08-02 04:22:00,
2013-08-01 21:27:00,54.7,53.9,30.13,SW,220,0.0,2.0,97,0.00,,,0.01,Wunderground v.1.15,2013-08-02 04:27:00,
2013-08-01 21:33:00,54.7,53.9,30.13,SW,220,0.0,2.0,97,0.00,,,0.01,Wunderground v.1.15,2013-08-02 04:33:00,
2013-08-01 21:38:00,54.8,54.0,30.13,SW,220,0.0,2.0,97,0.00,,,0.01,Wunderground v.1.15,2013-08-02 04:38:00,
2013-08-01 21:44:00,54.8,54.0,30.13,SW,220,0.0,2.0,97,0.00,,,0.01,Wunderground v.1.15,2013-08-02 04:44:00,
2013-08-01 21:49:00,54.5,53.7,30.13,SW,220,0.0,2.0,97,0.00,,,0.01,Wunderground v.1.15,2013-08-02 04:49:00,
2013-08-01 21:55:00,54.5,53.7,30.13,SW,220,0.0,2.0,97,0.00,,,0.01,Wunderground v.1.15,2013-08-02 04:55:00,
2013-08-01 22:01:00,54.5,53.7,30.13,SW,220,0.0,2.0,97,0.00,,,0.01,Wunderground v.1.15,2013-08-02 05:01:00,
2013-08-01 22:07:00,54.6,53.8,30.13,SW,220,0.0,2.0,97,0.00,,,0.01,Wunderground v.1.15,2013-08-02 05:07:00,
2013-08-01 22:13:00,54.7,53.9,30.14,SW,220,0.0,2.0,97,0.00,,,0.01,Wunderground v.1.15,2013-08-02 05:13:00,
2013-08-01 22:18:00,54.6,53.8,30.14,SW,220,0.0,2.0,97,0.00,,,0.01,Wunderground v.1.15,2013-08-02 05:18:00,
2013-08-01 22:24:00,54.6,53.8,30.14,SW,220,0.0,2.0,97,0.00,,,0.01,Wunderground v.1.15,2013-08-02 05:24:00,
2013-08-01 22:29:00,54.7,53.9,30.14,SW,220,0.0,2.0,97,0.00,,,0.01,Wunderground v.1.15,2013-08-02 05:29:00,
2013-08-01 22:35:00,54.8,54.0,30.14,SW,220,0.0,2.0,97,0.00,,,0.01,Wunderground v.1.15,2013-08-02 05:35:00,
2013-08-01 22:41:00,54.8,54.0,30.14,SW,220,0.0,2.0,97,0.00,,,0.01,Wunderground v.1.15,2013-08-02 05:41:00,
2013-08-01 22:47:00,54.7,53.9,30.14,SW,220,0.0,2.0,97,0.00,,,0.01,Wunderground v.1.15,2013-08-02 05:47:00,
2013-08-01 22:53:00,54.6,53.8,30.14,SW,220,0.0,2.0,97,0.00,,,0.01,Wunderground v.1.15,2013-08-02 05:53:00,
2013-08-01 22:59:00,54.6,53.8,30.14,SW,220,1.0,2.0,97,0.00,,,0.01,Wunderground v.1.15,2013-08-02 05:59:00,
2013-08-01 23:05:00,54.5,53.7,30.14,SW,220,1.0,2.0,97,0.00,,,0.01,Wunderground v.1.15,2013-08-02 06:05:00,
2013-08-01 23:11:00,54.5,53.7,30.14,SW,220,0.0,2.0,97,0.00,,,0.01,Wunderground v.1.15,2013-08-02 06:11:00,
2013-08-01 23:16:00,54.4,53.6,30.14,SW,220,0.0,2.0,97,0.00,,,0.01,Wunderground v.1.15,2013-08-02 06:16:00,
2013-08-01 23:21:00,54.5,53.7,30.14,SW,220,0.0,2.0,97,0.00,,,0.01,Wunderground v.1.15,2013-08-02 06:21:00,
2013-08-01 23:26:00,54.7,54.1,30.14,SW,220,0.0,2.0,98,0.00,,,0.01,Wunderground v.1.15,2013-08-02 06:26:00,
2013-08-01 23:32:00,54.8,54.2,30.14,SW,220,0.0,2.0,98,0.00,,,0.01,Wunderground v.1.15,2013-08-02 06:32:00,
2013-08-01 23:37:00,54.9,54.3,30.14,SW,220,0.0,2.0,98,0.00,,,0.01,Wunderground v.1.15,2013-08-02 06:37:00,
2013-08-01 23:43:00,54.9,54.3,30.14,SW,220,0.0,2.0,98,0.00,,,0.01,Wunderground v.1.15,2013-08-02 06:43:00,
2013-08-01 23:48:00,55.0,54.4,30.14,SW,220,0.0,2.0,98,0.00,,,0.01,Wunderground v.1.15,2013-08-02 06:48:00,
2013-08-01 23:53:00,55.1,54.5,30.14,SW,220,0.0,2.0,98,0.00,,,0.01,Wunderground v.1.15,2013-08-02 06:53:00,
2013-08-01 23:59:00,55.1,54.5,30.14,SW,220,0.0,2.0,98,0.00,,,0.01,Wunderground v.1.15,2013-08-02 06:59:00,